Regional Weather Roundup
Issued by NWS

Home | Current Version | Previous Version | Text Only | Print | Product List | Glossary Off
Versions: 1 2 3 4 5 6 7 8 9 10 11 12 13 14 15 16 17 18 19 20 21 22 23 24 25 26 27 28 29 30 31 32 33 34 35 36 37 38 39 40 41 42 43 44 45 46 47 48 49 50

000
ASUS43 KLMK 210702
RWRKY
KENTUCKY REGIONAL WEATHER ROUNDUP
NATIONAL WEATHER SERVICE LOUISVILLE KY
300 AM EDT TUE APR 21 2015

NOTE "FAIR" INDICATES FEW OR NO CLOUDS BELOW 12,000 FEET
WITH NO SIGNIFICANT WEATHER AND/OR OBSTRUCTIONS TO VISIBILITY.

KYZ001>023-026-027-061>063-070>075-210800-
WESTERN AND SOUTH CENTRAL KENTUCKY

CITY           SKY/WX    TMP DP  RH WIND       PRES   REMARKS
PADUCAH        CLEAR     45  37  73 SW6       29.90S
HENDERSON      CLEAR     43  36  75 SW7       29.87S
OWENSBORO      PTCLDY    45  39  79 SW8       29.88S
HOPKINSVILLE   PTCLDY    48  42  79 SW2       29.91S
BOWLING GREEN  MOCLDY    49  40  71 SW3       29.90F
GLASGOW        NOT AVBL
$$

KYZ024-025-028>034-038-045-046-053-210800-
NORTH CENTRAL KENTUCKY

CITY           SKY/WX    TMP DP  RH WIND       PRES   REMARKS
LOUISVILLE/SDF PTCLDY    48  35  60 SW8       29.85F
LOUISVILLE/LOU CLEAR     45  35  68 SW5       29.85F
FORT KNOX      PTCLDY    43  36  75 SW3       29.84F
$$

KYZ035>037-039>044-047>052-055>060-089>105-210800-
NORTHEAST KENTUCKY

CITY           SKY/WX    TMP DP  RH WIND       PRES   REMARKS
LEXINGTON      PTCLDY    45  35  68 SW7       29.86S
COVINGTON      MOCLDY    46  35  65 SW8       29.80F
FRANKFORT      PTCLDY    43  34  70 SW5       29.84F
$$

KYZ054-064>069-076>088-106>120-210800-
SOUTHEAST KENTUCKY

CITY           SKY/WX    TMP DP  RH WIND       PRES   REMARKS
JACKSON        CLOUDY    49  39  68 VRB7      29.87R
LONDON         CLOUDY    51  38  60 W6        29.89R
SOMERSET       NOT AVBL
MIDDLESBORO    NOT AVBL
MONTICELLO     CLOUDY    51  45  80 CALM      29.93S
$$



USA.gov is the U.S. government's official web portal to all federal, state and local government web resources and services.